This is the latest recevied weather packets stored in our database for station/object DG9VH-13. If no packets are shown the sender has not sent any weather packets the latest 10 day(s).
| Time | Temp. | Humidity | Pressure | Rain* | Wind** | Luminosity | Snow |
|---|---|---|---|---|---|---|---|
| 1777537803 | 13.33° C | 34% | 1008.3 hPa | - | - | - | - |
| 1777537204 | 12.78° C | 35% | 1008.5 hPa | - | - | - | - |
| 1777536604 | 12.78° C | 34% | 1008.5 hPa | - | - | - | - |
| 1777536004 | 12.22° C | 35% | 1008.5 hPa | - | - | - | - |
| 1777535401 | 11.67° C | 35% | 1008.5 hPa | - | - | - | - |
| 1777534804 | 11.67° C | 35% | 1008.5 hPa | - | - | - | - |
| 1777534204 | 11.67° C | 36% | 1008.5 hPa | - | - | - | - |
| 1777533604 | 11.11° C | 36% | 1008.7 hPa | - | - | - | - |
| 1777533001 | 11.11° C | 36% | 1008.4 hPa | - | - | - | - |
| 1777532403 | 10.56° C | 37% | 1008.4 hPa | - | - | - | - |
| 1777531801 | 10.56° C | 36% | 1008.3 hPa | - | - | - | - |
| 1777531204 | 10.56° C | 36% | 1008.2 hPa | - | - | - | - |
| 1777530600 | 10.56° C | 36% | 1008.2 hPa | - | - | - | - |
| 1777530000 | 10° C | 37% | 1008.3 hPa | - | - | - | - |
| 1777529404 | 10° C | 37% | 1008.3 hPa | - | - | - | - |
| 1777528800 | 9.44° C | 38% | 1008.3 hPa | - | - | - | - |
| 1777528203 | 10° C | 37% | 1008.4 hPa | - | - | - | - |
| 1777527601 | 10° C | 38% | 1008.4 hPa | - | - | - | - |
| 1777527000 | 10° C | 37% | 1008.4 hPa | - | - | - | - |
| 1777526404 | 9.44° C | 38% | 1008.5 hPa | - | - | - | - |
| 1777525801 | 10° C | 37% | 1008.4 hPa | - | - | - | - |
| 1777525204 | 9.44° C | 38% | 1008.3 hPa | - | - | - | - |
| 1777524600 | 10° C | 37% | 1008.4 hPa | - | - | - | - |
| 1777524001 | 9.44° C | 37% | 1008.2 hPa | - | - | - | - |
| 1777523404 | 9.44° C | 37% | 1008.1 hPa | - | - | - | - |
* Rain since midnight (hover to see other rain measurements)
** Current wind speed in m/s (hover to see current wind gust speed)